This demonstration page uses our WeatherBlox Daily Observations layout. Learn more.

39.01783, -85.05884

Hourly Observations for January 15, 2019

Temp ( °F °C ) Dew Point ( °F °C ) Humidity (%) Winds ( mph kmh ) Pressure ( in mb ) Visibility ( mi km ) Precip ( " mm )
12:52 am 00:52 Clear with Mist and Fog 17 -8.3 13 -10.6 84 84 Calm 30.3 1026 5 8.04672 0 0
1:52 am 01:52 Clear with Mist and Fog 19 -7.2 15 -9.4 84 84 Calm 30.3 1026 4 6.437376 0 0
2:52 am 02:52 Mostly Clear with Patchy Fog 17 -8.3 13 -10.6 84 84 Calm 30.3 1026 4 6.437376 0 0
3:18 am 03:18 Partly Cloudy with Patchy Fog 16 -8.9 13 -10.6 88 88 SSW 3 6 30.36 1028 3 4.828032 0 0
3:52 am 03:52 Mostly Clear with Patchy Fog 16 -8.9 12 -11.1 84 84 Calm 30.3 1026 3 4.828032 0 0
4:26 am 04:26 Mostly Cloudy with Haze 15 -9.4 10 -12.2 80 80 SSW 5 7 30.36 1028 1.5 2.414016 0 0
4:34 am 04:34 Mostly Cloudy with Mist and Fog 16 -8.9 12 -11.1 84 84 SSW 3 6 30.36 1028 0.75 1.207008 0 0
4:44 am 04:44 Mostly Cloudy with Freezing Fog 16 -8.9 13 -10.6 88 88 Calm 30.36 1028 0.25 0.402336 0 0
4:52 am 04:52 Mostly Cloudy with Freezing Fog 18 -7.8 14 -10 84 84 WNW 3 6 30.3 1026 1 1.609344 0 0
5:09 am 05:09 Mostly Cloudy with Freezing Fog 19 -7.2 15 -9.4 84 84 W 8 13 30.36 1028 0.25 0.402336 0 0
5:16 am 05:16 Cloudy with Mist and Fog 20 -6.7 17 -8.3 89 89 W 8 13 30.36 1028 2 3.218688 0 0
5:37 am 05:37 Cloudy with Mist and Fog 19 -7.2 15 -9.4 84 84 NW 8 13 30.36 1028 3 4.828032 0 0
5:52 am 05:52 Cloudy with Mist and Fog 20 -6.7 16 -8.9 85 85 NW 5 7 30.3 1026 3 4.828032 0 0
6:13 am 06:13 Cloudy with Mist and Fog 19 -7.2 15 -9.4 84 84 Calm 30.36 1028 3 4.828032 0 0
6:52 am 06:52 Cloudy with Mist and Fog 19 -7.2 15 -9.4 84 84 Calm 30.3 1026 3 4.828032 0 0
7:52 am 07:52 Cloudy with Patchy Fog 20 -6.7 18 -7.8 92 92 Calm 30.3 1026 3 4.828032 0 0
8:02 am 08:02 Cloudy with Patchy Fog 21 -6.1 18 -7.8 88 88 SSW 3 6 30.36 1028 2.5 4.02336 0 0
8:52 am 08:52 Cloudy with Mist and Fog 22 -5.6 19 -7.2 89 89 S 3 6 30.3 1026 3 4.828032 0 0
9:52 am 09:52 Cloudy with Mist and Fog 24 -4.4 21 -6.1 88 88 SSW 3 6 30.3 1026 4 6.437376 0 0
10:52 am 10:52 Cloudy with Mist and Fog 25 -3.9 22 -5.6 88 88 WSW 5 7 30.33 1027 5 8.04672 0 0
11:52 am 11:52 Cloudy with Mist and Fog 26 -3.3 23 -5 88 88 SW 7 11 30.3 1026 4 6.437376 0.001 0.001
12:17 pm 12:17 Cloudy with Mist and Fog 27 -2.8 24 -4.4 89 89 SSW 8 13 30.33 1027 3 4.828032 0 0
12:52 pm 12:52 Cloudy with Mist and Fog 27 -2.8 24 -4.4 89 89 SSW 7 11 30.27 1025 3 4.828032 0 0
1:52 pm 13:52 Cloudy with Haze 29 -1.7 24 -4.4 82 82 WSW 6 9 30.24 1024 3 4.828032 0 0
2:52 pm 14:52 Cloudy with Mist and Fog 29 -1.7 25 -3.9 85 85 SW 6 9 30.24 1024 3 4.828032 0 0
3:52 pm 15:52 Cloudy with Haze 30 -1.1 25 -3.9 82 82 SSW 12 19 30.21 1023 3 4.828032 0 0
4:52 pm 16:52 Cloudy with Light Snow 30 -1.1 26 -3.3 85 85 SSW 8 13 30.21 1023 3 4.828032 0.001 0.001
5:33 pm 17:33 Cloudy with Light Snow 30 -1.1 26 -3.3 85 85 SW 8 13 30.24 1024 3 4.828032 0.001 0.001
5:52 pm 17:52 Cloudy with Light Snow 30 -1.1 26 -3.3 85 85 SSW 7 11 30.21 1023 3 4.828032 0.001 0.001
6:52 pm 18:52 Cloudy with Mist and Fog 30 -1.1 26 -3.3 85 85 SSW 8 13 30.21 1023 3 4.828032 0.001 0.001
7:52 pm 19:52 Cloudy with Mist and Fog 31 -0.6 27 -2.8 85 85 SW 8 13 30.18 1022 3 4.828032 0 0
8:52 pm 20:52 Cloudy with Mist and Fog 31 -0.6 27 -2.8 85 85 WSW 9 15 30.18 1022 3 4.828032 0 0
9:52 pm 21:52 Cloudy with Mist and Fog 31 -0.6 27 -2.8 85 85 SW 12 19 30.21 1023 6 9.656064 0 0
10:33 pm 22:33 Cloudy with Mist and Fog 31 -0.6 28 -2.2 89 89 SSW 12 19 30.24 1024 6 9.656064 0 0
10:52 pm 22:52 Cloudy with Mist and Fog 31 -0.6 28 -2.2 89 89 SSW 12 19 30.18 1022 5 8.04672 0 0
11:52 pm 23:52 Cloudy with Mist and Fog 31 -0.6 28 -2.2 89 89 SSW 9 15 30.15 1021 5 8.04672 0 0

Powered by AerisWeather